RH
35 34 35 35 35 35 36 35 35 34 33 33 33 32 30 29 29 29 28 27 25 24 24 22 20 20 20 20 20 19 19 20 19 19 19 19 19 19 19 19 20 22 22 23 22 22 22 21 21 21 20 19 18 18 18 18 17 17 17 16 16 15 15 14 13 12 12 11 11 11 11 12 12 12 12 13 14 14 14 14 13 13 13 12 11 11
37 37 37 35 35 35 35 36 36 35 33 33 33 34 33 31 30 29 26 24 23 23 22 22 21 20 20 20 20 19 18 18 17 18 18 18 18 18 19 20 21 22 22 21 21 20 19 18 18 17 16 16 15 15 15 15 14 14 13 13 12 11 11 10 9 9 9 9 9 9 9 9 9 10 10 11 12 13 14 14 14 13 14 14 12 11
37 38 39 39 39 38 38 38 39 39 37 35 36 37 35 33 33 33 30 25 23 22 21 21 21 20 21 21 21 20 19 17 17 17 17 17 18 18 19 20 21 21 20 18 17 17 16 15 15 14 14 14 14 14 13 12 11 10 10 9 8 7 7 7 7 7 7 7 7 8 8 8 8 8 8 9 10 11 12 13 14 13 13 14 14 12
39 39 40 41 42 41 42 42 42 44 44 40 39 38 37 36 35 34 32 29 24 20 18 18 19 19 20 20 21 20 18 18 18 18 18 18 19 20 21 22 22 20 19 18 17 16 15 14 14 14 14 14 13 13 12 11 10 8 7 7 6 6 6 7 7 7 7 6 6 6 6 6 6 6 6 7 7 8 9 10 11 12 12 13 13 13
40 39 40 41 43 43 43 45 45 47 47 45 42 41 39 37 35 34 31 29 26 22 18 16 16 17 17 18 18 17 17 18 18 19 19 20 21 21 22 22 21 20 19 18 17 15 14 13 13 13 13 12 12 11 10 8 8 7 6 6 7 7 7 7 7 7 7 6 5 5 5 5 5 5 5 5 5 6 6 7 8 10 10 11 12 12
40 41 43 43 43 43 44 45 45 46 45 44 43 40 37 34 32 31 29 26 25 23 19 16 16 15 14 15 14 14 15 16 17 18 19 19 20 20 20 19 18 18 16 15 14 13 13 13 13 13 12 11 10 9 8 7 6 6 6 6 7 6 6 6 6 5 5 5 5 5 5 5 4 4 4 4 4 5 5 5 6 7 8 8 9 10
42 43 46 47 46 45 46 48 48 47 44 42 40 37 34 31 29 28 26 24 22 21 18 16 16 15 13 13 12 13 14 14 14 16 17 17 18 18 18 17 16 14 13 12 12 12 12 12 11 11 10 9 8 7 6 6 5 5 5 5 5 5 5 4 4 4 4 4 3 3 3 3 3 3 3 3 4 4 4 4 4 5 6 6 7 7
46 47 51 52 52 51 50 51 51 49 46 43 39 35 32 30 27 25 23 20 19 18 16 15 15 14 14 13 12 13 13 13 14 15 16 16 16 16 15 15 13 12 12 12 12 12 12 11 10 9 8 8 7 6 6 5 5 5 4 4 4 4 4 4 4 3 3 3 3 3 3 2 2 2 2 3 3 3 3 4 4 4 4 5 5 6
51 55 59 59 61 60 56 55 54 52 49 44 40 36 32 27 25 22 20 19 18 16 14 13 13 13 13 13 12 13 13 13 15 15 16 16 15 15 14 13 13 13 13 13 13 12 12 11 10 9 8 7 7 6 5 4 4 4 4 3 3 3 3 3 3 3 3 3 3 3 3 2 2 2 2 2 2 2 3 3 3 3 4 4 4 5
58 61 64 64 64 64 62 59 57 54 51 46 42 39 34 28 24 20 17 16 16 15 13 12 12 12 12 12 11 12 12 13 14 14 15 15 15 14 13 12 13 13 13 12 12 11 10 9 8 7 6 6 5 4 4 4 3 3 3 3 3 3 3 3 2 2 2 2 2 2 2 2 2 2 2 2 2 2 2 2 2 2 3 3 3 4
59 63 66 67 65 64 65 63 59 54 51 47 42 38 35 30 26 22 17 15 15 14 13 12 12 12 10 10 10 11 12 12 12 13 13 13 12 11 11 11 11 11 10 10 9 9 8 7 6 6 5 4 4 3 3 3 3 3 3 3 3 3 3 3 3 3 3 3 2 2 2 2 2 2 2 2 2 2 2 2 2 2 2 2 3 3
63 66 68 68 64 61 64 64 61 56 52 50 45 37 32 27 24 21 16 13 14 14 13 11 11 11 10 9 10 11 11 12 11 11 10 10 10 10 10 10 9 9 9 8 8 7 6 6 6 5 5 4 4 4 3 3 3 3 3 3 3 3 3 3 3 3 3 3 3 3 2 2 2 2 2 2 2 2 2 2 2 2 2 2 2 2
75 76 73 72 68 62 62 63 61 58 53 50 45 37 30 24 19 16 12 11 11 12 12 11 10 11 10 9 10 10 10 10 10 9 9 8 8 8 8 8 8 7 7 7 6 6 5 5 4 4 4 4 3 3 3 3 3 2 2 3 3 3 3 3 3 3 3 3 3 3 3 2 2 2 2 2 2 2 2 2 2 2 2 2 2 2
73 76 74 72 71 66 61 59 56 52 48 44 40 35 28 23 18 14 11 9 9 10 11 10 10 10 9 10 10 9 9 9 9 8 7 7 7 7 7 6 6 6 5 5 4 4 4 3 3 3 3 3 3 3 3 3 3 3 3 3 3 3 2 2 2 2 2 2 2 2 2 2 2 2 2 2 2 2 2 2 2 2 2 2 2 2
68 66 67 64 63 64 60 57 55 49 45 41 37 33 28 24 19 14 11 9 8 9 9 10 11 9 9 10 10 9 9 9 8 8 7 7 6 6 6 5 4 4 4 4 4 4 3 3 3 3 3 3 3 3 3 3 3 3 3 3 3 3 2 2 2 1 2 1 2 2 2 2 2 2 2 2 2 2 2 2 2 2 2 2 2 2
77 65 65 62 57 60 60 58 57 52 47 42 37 32 28 25 21 15 11 9 8 8 8 9 10 9 8 9 9 9 9 8 8 8 7 6 6 5 5 4 4 4 4 4 4 4 4 3 3 3 3 3 3 3 3 3 3 3 3 3 3 3 2 2 2 2 2 1 1 2 2 2 2 2 2 2 2 2 2 2 2 2 2 2 2 2
81 70 67 66 61 60 62 63 61 56 49 42 36 31 27 25 22 16 10 9 7 7 8 8 8 8 8 8 9 9 9 8 7 7 6 6 5 5 4 4 4 4 4 4 4 4 4 3 3 3 3 3 3 3 3 3 3 3 3 3 3 2 2 2 2 2 2 2 2 1 2 2 2 2 2 2 2 2 2 2 2 2 2 2 2 2
75 73 68 67 65 61 61 63 63 59 51 44 37 31 26 22 19 15 10 8 7 6 7 8 8 8 7 8 9 8 8 7 6 6 5 5 5 4 4 4 3 3 3 3 3 3 3 3 3 2 3 3 3 3 3 3 3 3 3 3 2 2 2 2 2 2 2 2 2 1 2 2 2 2 2 2 2 2 2 2 2 2 2 2 2 2
65 70 68 65 64 61 58 60 63 62 55 47 40 31 24 20 17 14 11 8 7 6 6 8 9 8 7 8 7 7 6 5 5 5 4 4 4 3 3 3 3 3 3 3 3 3 3 3 2 2 3 3 3 3 3 3 3 3 3 2 2 2 2 2 2 2 2 2 2 2 1 2 2 2 2 2 2 2 2 2 2 2 2 2 2 2
59 63 69 71 68 62 58 56 59 61 56 47 39 30 23 19 16 13 11 9 8 7 6 8 9 8 7 7 7 6 6 4 4 4 3 4 3 3 3 2 3 3 2 3 3 3 3 3 3 3 3 3 3 3 3 3 3 3 3 2 2 2 2 2 2 2 2 2 2 2 2 2 2 2 2 2 2 2 2 2 2 2 2 2 2 2
56 57 64 71 70 66 62 57 54 55 53 44 36 30 22 18 16 13 10 10 9 7 7 8 9 8 7 7 7 6 5 4 3 3 3 3 3 3 3 2 2 3 3 3 3 2 3 3 3 3 3 3 3 3 3 3 3 3 3 2 2 2 2 2 2 2 2 2 2 2 2 2 2 2 2 2 2 2 2 2 2 2 2 2 2 2
57 55 57 62 64 62 60 57 51 49 51 47 39 30 22 17 15 13 10 9 9 7 7 7 9 9 7 7 6 6 5 4 3 3 3 3 3 3 3 3 3 2 3 3 3 3 3 3 3 3 3 3 3 3 3 3 3 3 3 2 2 2 2 2 2 2 2 2 2 2 2 2 2 2 2 2 2 2 2 2 2 2 2 2 2 2
58 53 54 61 67 67 65 62 57 52 52 51 44 33 23 17 15 13 10 8 9 8 7 7 9 8 7 7 6 6 5 4 3 3 3 3 3 3 3 3 3 3 3 3 3 3 3 3 3 3 3 3 3 3 3 3 3 3 2 2 2 2 2 2 2 2 2 2 2 2 2 2 2 2 2 2 2 2 2 2 2 2 2 2 2 2
60 53 50 54 64 71 71 70 69 64 58 53 47 36 25 17 15 13 10 8 9 9 8 7 8 9 8 7 6 6 5 5 4 3 3 4 3 4 4 4 4 3 3 3 3 3 3 3 3 3 3 3 3 3 3 3 3 3 2 2 2 2 2 2 2 2 2 2 2 2 2 2 2 2 2 2 2 2 2 2 2 2 2 2 2 2
64 58 51 48 51 56 58 59 61 62 59 54 49 40 27 18 14 13 11 8 8 9 9 7 7 8 8 7 6 6 5 4 4 3 4 4 3 4 4 4 4 4 3 3 3 3 3 3 3 3 3 3 3 3 3 3 3 2 2 2 2 2 2 2 2 2 2 2 2 2 2 2 2 2 2 2 2 2 2 2 2 2 2 2 2 2
69 66 59 55 56 57 57 59 61 60 58 56 50 42 30 19 14 13 11 8 7 9 10 9 7 7 7 6 5 5 4 4 4 4 4 4 4 4 4 4 4 3 3 3 3 3 3 3 3 3 3 3 3 3 3 3 3 2 2 2 2 2 2 2 2 2 2 2 2 2 2 2 2 2 2 2 2 2 2 2 2 2 2 2 2 2
69 70 67 63 67 70 69 72 77 74 68 62 52 43 33 21 14 12 10 9 7 7 9 10 8 6 6 6 5 4 4 3 3 3 3 3 3 3 3 4 3 3 3 2 3 3 3 3 3 3 3 3 3 3 3 3 2 2 2 2 2 2 2 2 2 2 2 2 2 2 2 2 2 2 2 2 2 2 2 2 2 2 2 3 2 2
64 67 69 67 70 75 76 79 85 85 79 71 58 45 36 24 14 11 10 9 7 6 7 8 7 6 5 5 4 4 3 3 3 3 3 2 3 3 3 3 3 3 3 2 3 3 2 3 3 3 3 3 3 3 3 3 2 2 2 2 2 2 2 2 2 2 2 2 2 2 2 2 2 2 2 2 2 2 2 2 3 3 2 2 3 3
61 61 65 67 67 74 80 82 84 83 78 73 63 50 40 28 16 11 10 8 7 7 6 6 7 6 5 5 4 3 3 3 2 3 3 3 3 3 3 3 3 3 3 3 2 2 2 3 3 3 3 3 3 3 2 2 2 2 2 2 2 2 2 2 2 2 2 2 2 2 2 2 2 2 2 2 2 2 2 2 2 3 3 2 3 3
59 57 60 63 64 69 76 80 81 79 73 68 64 55 43 31 18 11 9 8 7 7 7 7 7 7 5 5 4 4 3 2 3 3 3 3 3 3 3 3 3 3 3 3 2 2 3 2 3 3 3 3 3 3 2 2 2 2 2 2 2 2 2 2 2 2 2 2 2 2 2 2 2 2 2 2 2 2 2 2 2 3 3 3 3 3
57 56 56 58 59 61 66 70 73 74 70 63 60 54 44 32 20 11 9 8 6 6 7 7 6 6 5 4 4 4 3 2 3 3 3 3 3 3 3 3 3 3 3 3 2 3 3 2 3 3 3 3 3 2 2 2 2 2 2 2 2 2 2 2 2 2 2 2 2 2 2 2 2 2 2 2 2 2 2 2 2 3 3 3 3 2
56 55 54 54 55 56 59 62 63 63 61 55 51 47 41 33 22 13 9 8 7 6 6 6 6 5 4 4 3 4 3 2 2 2 2 3 2 2 2 3 3 3 3 3 3 3 3 3 3 3 3 3 3 2 2 2 2 2 2 2 2 2 2 2 2 2 2 2 2 2 2 2 2 2 2 2 2 2 2 2 2 3 3 3 3 3
56 54 52 51 53 52 53 58 58 53 50 47 45 42 38 33 26 16 10 8 8 7 6 6 6 5 4 3 3 3 3 3 2 2 2 2 2 3 2 2 3 3 3 3 3 3 3 3 3 3 3 3 3 2 2 2 2 2 2 2 2 2 2 2 2 2 2 2 3 2 3 3 2 3 2 2 2 2 2 3 3 3 3 3 3 3
57 55 52 49 50 50 50 52 52 49 48 45 43 42 39 34 29 20 12 8 7 7 6 6 5 5 4 3 3 3 3 3 3 2 2 2 2 3 3 2 3 3 2 3 3 3 3 3 3 3 3 3 3 2 2 2 2 2 2 2 2 2 2 2 2 3 2 3 3 2 3 3 3 3 3 2 2 3 3 3 3 3 3 3 3 3
56 54 52 49 48 49 48 47 47 49 49 47 44 44 40 34 30 24 15 9 7 6 6 6 6 5 4 3 3 4 4 4 4 3 3 3 2 2 3 3 3 3 3 3 3 3 3 3 3 3 3 3 3 2 2 2 2 2 2 2 2 2 2 2 2 3 3 3 3 3 3 3 3 3 3 3 3 3 3 3 3 3 3 3 3 3
54 52 51 50 48 48 48 48 47 46 47 46 46 45 41 35 32 27 18 10 7 7 6 6 6 5 4 4 3 3 4 4 4 4 3 3 3 2 2 3 2 3 3 3 3 3 3 3 3 3 3 3 2 2 2 2 2 2 2 2 2 2 2 2 3 3 3 3 3 3 3 3 3 3 3 3 3 3 3 3 3 3 3 3 3 3
51 52 52 51 49 48 47 48 46 43 42 45 49 49 45 40 35 30 23 13 8 7 7 5 5 5 4 4 3 3 4 4 4 4 4 3 3 2 2 2 2 2 2 3 3 3 3 3 3 3 3 2 2 2 2 2 2 2 2 2 2 3 3 3 3 3 3 3 3 3 3 3 3 3 3 3 3 3 3 3 3 3 2 3 3 3
48 50 53 53 51 49 47 47 45 42 41 44 50 54 51 46 39 33 27 18 10 7 6 6 6 5 4 4 3 3 3 4 4 4 3 3 3 3 3 2 2 3 3 3 3 3 3 3 3 3 3 2 2 2 2 2 2 2 2 2 2 3 3 3 3 3 3 3 3 3 3 3 3 3 3 3 3 3 3 2 3 3 2 3 3 3
46 48 51 52 53 51 50 50 47 44 44 46 49 53 53 50 44 35 27 20 12 7 6 6 6 6 5 4 3 3 3 3 3 3 3 3 3 3 3 3 3 3 3 3 3 3 3 3 3 3 3 2 2 2 2 2 2 2 2 2 3 3 3 3 3 3 3 3 3 3 3 3 3 3 3 3 3 3 3 3 3 2 3 3 3 3
44 46 47 50 52 51 50 50 49 47 49 50 50 49 50 48 43 36 28 21 14 9 7 6 6 6 6 4 3 3 3 3 3 3 3 3 3 3 3 3 3 3 3 3 3 3 3 3 3 3 3 2 2 2 2 2 2 2 3 3 3 3 3 3 3 3 3 3 3 3 3 3 3 3 3 3 3 3 3 3 3 3 3 3 3 3
41 42 43 46 49 49 48 48 48 46 48 52 52 49 46 43 39 36 31 24 17 12 8 7 6 6 6 5 3 3 4 3 3 3 3 3 3 3 3 3 3 3 3 3 3 3 3 3 3 3 3 2 2 2 2 2 2 2 3 3 3 3 3 3 3 3 3 3 2 3 2 2 3 3 3 3 3 3 3 3 3 3 3 3 3 3
38 38 39 40 45 49 48 44 43 43 44 47 50 49 48 46 42 38 34 29 23 15 10 7 7 6 6 5 4 3 4 4 4 4 4 4 3 3 3 3 3 3 3 3 3 3 3 3 3 3 3 2 2 2 2 2 2 3 3 3 3 3 3 3 3 3 3 3 3 3 2 3 2 2 3 3 2 3 3 3 3 3 3 3 3 3
40 37 36 37 39 45 48 46 44 45 46 47 50 53 56 56 52 45 39 33 26 18 11 8 6 6 6 5 4 3 4 4 4 4 4 3 3 3 3 3 3 3 3 3 3 3 3 3 3 2 2 2 2 2 2 3 3 3 3 3 3 3 3 3 3 3 3 3 3 2 2 3 3 2 3 3 3 3 3 3 3 3 3 3 3 3
44 40 37 36 38 44 50 51 49 50 55 59 61 62 64 65 63 56 46 35 27 20 13 8 6 6 6 5 5 4 3 4 4 4 4 4 3 3 3 3 3 3 3 3 3 3 3 2 2 3 3 2 2 2 3 3 3 3 3 3 3 3 3 3 3 3 3 3 3 3 3 3 3 3 3 3 3 3 3 3 3 3 3 3 3 3
48 43 39 36 39 45 51 53 51 52 59 67 71 70 69 68 67 62 51 38 29 22 15 9 7 6 6 6 5 4 3 4 4 4 4 4 3 3 3 3 3 3 3 3 3 3 3 3 2 2 2 2 2 3 3 3 3 3 3 3 3 3 3 3 3 3 3 3 3 3 3 3 3 3 3 3 4 3 4 4 4 4 4 4 4 4
51 47 42 36 35 39 46 50 50 49 54 62 69 72 71 69 66 61 52 41 32 24 17 12 8 7 6 6 6 5 4 4 4 4 4 4 4 4 3 3 3 3 3 3 3 3 3 3 3 3 3 3 3 3 3 3 3 3 3 3 3 3 3 3 4 4 3 4 4 4 4 4 4 4 4 4 4 4 4 4 4 4 4 3 4 4
53 48 44 37 32 33 38 44 48 49 51 57 63 66 66 65 62 58 51 43 35 28 21 14 9 7 6 6 6 5 4 3 4 4 4 4 4 4 3 3 3 3 3 3 3 3 3 2 3 3 2 3 3 3 3 3 3 3 3 4 4 4 4 4 4 4 4 4 4 4 4 4 4 4 4 4 4 4 3 4 4 3 4 4 4 4
55 50 45 39 34 32 33 37 44 48 50 54 60 62 61 59 58 56 51 44 37 32 26 17 11 8 6 6 6 5 4 3 4 4 4 4 4 4 4 4 3 3 4 3 3 3 3 3 3 3 3 3 3 3 3 4 4 4 3 4 4 4 4 4 4 4 4 4 4 4 4 4 4 4 4 4 4 4 3 3 4 4 4 4 4 4
59 54 47 41 36 33 31 31 37 43 47 51 55 58 58 58 57 56 53 46 39 34 28 20 13 9 6 6 6 6 5 4 3 4 5 5 4 4 4 4 3 3 3 3 3 3 3 3 3 3 3 3 3 3 4 4 4 4 4 4 4 4 5 5 5 5 4 4 4 4 4 4 4 4 4 4 3 4 4 3 4 4 4 4 4 4
66 61 52 43 37 35 32 30 32 38 43 47 51 56 59 59 59 58 55 50 42 35 29 22 15 10 7 6 6 6 6 5 4 4 4 5 5 5 4 4 4 3 3 3 4 3 3 3 3 3 3 3 3 4 4 4 4 4 4 5 5 5 5 5 4 5 5 4 4 4 4 4 4 4 4 4 4 4 4 4 4 4 4 4 4 4
72 69 59 47 40 37 35 31 31 36 42 46 50 56 60 61 62 61 59 53 45 38 32 25 17 12 8 6 6 6 6 5 4 4 4 4 5 5 4 4 4 4 4 4 4 3 3 3 3 3 3 4 3 4 4 4 4 5 5 5 5 5 5 5 5 5 5 4 4 4 4 4 4 4 4 4 4 4 4 4 4 4 4 4 4 4
Wind_Speed
50 50 50 52 53 54 55 56 57 57 57 57 58 59 60 61 62 66 69 69 69 67 68 72 74 75 77 79 83 84 85 87 88 89 90 91 93 93 94 94 94 95 95 97 98 100 101 102 103 104 105 106 107 107 108 109 110 111 112 113 114 116 117 119 120 120 120 121 121 122 122 123 124 125 125 125 126 127 128 128 128 128 128 129 129 128
52 53 53 54 55 56 58 59 60 61 60 60 61 62 62 62 61 64 68 69 69 68 67 70 73 75 77 79 81 83 85 86 86 87 88 89 90 90 90 90 90 91 92 94 95 97 98 98 99 100 101 101 101 102 103 104 105 106 108 109 110 111 112 114 115 115 115 115 116 117 118 119 120 121 122 122 124 126 127 129 130 129 129 129 130 128
55 56 56 58 59 60 61 63 64 65 65 64 65 65 66 66 64 64 67 69 71 70 66 68 72 74 76 78 80 82 84 85 85 86 87 88 88 87 87 87 88 89 91 92 93 94 95 95 96 96 97 98 98 99 101 102 103 104 104 105 105 106 106 107 108 109 109 109 110 112 113 114 115 116 117 117 118 121 124 126 128 129 129 129 131 130
58 58 59 61 63 64 65 66 67 68 70 69 68 68 68 69 68 66 65 65 69 70 66 64 68 72 75 77 79 81 83 83 84 85 86 86 86 85 86 86 87 89 90 91 92 93 93 94 94 94 95 96 98 99 101 102 103 103 103 103 103 103 103 104 105 107 107 106 106 107 108 109 109 109 110 111 112 113 116 119 123 126 128 128 130 131
61 62 63 65 66 67 68 69 70 70 72 72 72 72 71 71 71 70 68 65 66 70 68 65 66 69 72 75 77 78 79 81 82 83 83 83 83 84 84 85 87 87 88 89 90 91 92 92 92 93 94 96 98 99 101 101 102 102 101 101 101 102 103 104 105 106 106 105 105 105 106 106 106 105 104 105 106 108 109 112 115 119 122 125 126 129
64 66 67 68 69 70 71 71 72 72 73 73 74 74 73 72 72 73 73 70 68 69 69 67 67 68 71 74 75 75 75 77 78 78 79 79 80 81 82 83 85 86 87 88 89 89 89 90 91 92 94 96 98 99 99 99 99 99 98 98 99 100 101 101 102 103 103 103 103 104 105 105 105 104 102 102 102 103 105 106 109 112 115 118 120 123
67 68 69 71 72 73 74 74 75 75 75 75 75 76 76 76 76 76 76 75 73 72 71 71 72 72 72 75 75 74 74 75 74 75 76 77 78 79 81 82 83 84 85 86 86 87 88 89 90 92 94 95 96 96 97 96 95 94 94 94 95 96 96 97 98 99 100 100 99 99 99 100 100 100 99 100 100 100 101 102 103 106 109 111 114 116
69 70 72 73 74 75 76 76 77 77 78 78 78 78 78 78 78 78 78 78 76 76 75 75 77 76 75 76 75 74 75 74 73 73 74 75 75 76 78 79 81 82 82 82 83 84 86 88 90 92 93 93 93 94 94 92 91 90 92 92 92 92 93 94 95 95 96 96 96 96 96 95 94 93 93 94 95 95 97 99 100 101 103 105 108 110
70 72 73 74 76 77 78 78 79 79 80 80 80 81 81 80 80 80 79 79 78 78 76 75 78 76 74 75 75 74 74 71 69 70 72 73 73 74 76 77 78 79 79 80 81 83 84 87 89 90 91 91 92 92 91 89 88 89 90 89 87 88 88 89 89 89 89 91 92 93 94 94 92 91 89 90 90 89 90 93 96 99 100 101 103 104
72 74 75 76 77 78 80 80 81 82 83 83 82 82 82 81 81 80 79 77 77 77 75 73 76 75 71 70 72 72 70 68 67 68 69 70 72 73 75 76 76 77 77 78 80 81 83 85 86 86 86 87 87 86 85 84 84 83 83 82 81 82 82 82 82 82 82 84 85 86 88 89 89 89 88 88 88 87 86 86 89 92 95 97 100 101
74 76 77 78 79 80 82 83 84 85 85 86 85 83 82 81 80 79 78 76 75 76 76 76 76 77 74 70 71 71 68 67 67 67 68 70 71 73 74 75 75 75 76 76 78 79 81 82 82 83 83 84 82 81 81 81 80 79 78 77 76 78 78 79 78 78 79 81 81 81 81 81 82 83 83 84 85 85 84 84 84 85 87 90 94 97
76 77 78 79 81 82 83 85 87 88 88 88 88 86 83 81 78 77 77 75 75 75 77 78 77 77 76 73 72 71 68 68 68 68 69 70 70 72 74 74 74 74 74 75 76 77 78 79 79 81 82 82 80 79 79 79 77 76 74 72 71 72 73 73 73 73 75 77 78 79 78 77 76 76 76 77 78 79 80 82 83 83 83 84 87 91
78 79 80 81 83 85 85 86 88 89 90 90 90 90 89 85 81 79 78 75 74 75 76 77 75 74 73 71 70 70 69 69 70 69 69 68 69 71 73 73 73 73 73 73 74 74 75 75 75 76 76 76 75 75 75 75 73 71 69 67 67 66 66 65 64 65 66 68 71 73 74 74 74 73 72 72 72 72 74 77 80 83 83 82 83 86
79 80 82 84 86 88 89 90 91 92 93 94 94 94 95 93 90 87 85 80 76 75 76 77 76 74 72 69 69 69 69 70 70 70 69 67 69 70 70 70 69 68 69 69 70 71 73 72 71 72 71 69 69 71 71 70 69 68 66 65 64 63 61 60 59 58 59 60 61 64 66 68 69 71 71 70 69 69 69 71 75 79 82 82 82 83
82 83 86 87 89 92 94 95 97 97 97 98 98 98 98 97 96 93 92 88 82 77 77 77 76 74 71 70 71 69 69 70 70 71 70 69 69 70 69 67 66 65 66 67 68 69 71 71 70 69 68 66 66 66 67 66 66 65 64 63 62 60 59 58 57 55 55 55 56 57 59 61 63 66 67 68 68 68 67 68 70 73 76 79 81 82
86 87 89 91 92 94 97 99 100 101 101 101 100 100 100 99 98 95 92 90 86 79 77 78 77 74 71 69 70 70 70 71 71 72 71 70 69 69 68 67 66 65 65 65 65 67 69 69 68 67 65 64 63 63 62 63 63 62 61 61 60 58 57 56 55 54 53 53 54 54 54 56 58 60 63 64 66 67 67 67 67 68 70 72 76 79
88 90 92 94 95 97 100 102 104 104 104 104 103 102 101 100 100 97 92 89 86 80 76 78 79 75 71 69 68 69 70 70 71 71 71 70 69 68 67 65 64 63 62 63 63 64 66 66 66 64 63 61 60 59 59 60 60 60 59 58 57 56 55 54 53 52 52 52 52 52 52 52 54 55 58 60 62 64 66 66 67 66 66 67 70 73
87 91 93 95 97 99 101 104 106 108 107 107 106 105 102 100 99 100 98 93 90 83 77 78 82 80 75 72 70 69 69 68 69 69 68 68 67 66 64 63 62 61 60 59 60 61 62 64 63 61 60 59 58 57 57 58 58 58 56 55 54 53 52 51 50 50 50 50 50 50 50 50 51 52 54 56 59 61 63 64 65 64 64 65 66 68
87 91 95 97 99 101 102 104 107 109 109 109 108 107 105 102 100 101 102 99 96 92 83 78 81 82 77 74 73 71 69 68 67 67 65 64 63 62 61 59 58 58 57 57 57 58 59 60 60 57 57 57 57 55 55 55 56 55 53 52 50 50 49 48 48 47 47 48 48 48 48 49 49 49 51 53 55 58 60 61 61 62 62 63 64 65
88 92 97 101 102 102 104 105 107 109 109 109 108 108 106 105 102 100 101 101 99 98 92 83 81 84 80 76 75 73 71 70 68 67 65 64 62 62 61 59 57 56 55 55 55 56 56 57 57 55 53 54 55 55 54 53 52 51 50 49 47 46 46 45 45 45 45 45 46 46 47 48 48 48 48 50 52 55 56 57 57 58 60 62 63 64
89 92 97 101 103 105 106 108 109 111 112 111 111 110 109 107 104 100 97 98 97 97 97 92 88 87 84 80 77 75 74 73 71 70 69 67 66 65 64 63 60 57 56 55 54 54 54 54 55 54 52 52 53 53 53 51 49 48 47 46 45 44 43 42 42 42 43 43 44 44 45 46 47 47 47 48 49 51 53 53 53 54 57 60 61 62
90 92 95 99 103 105 108 109 110 111 113 114 114 113 112 110 108 104 98 94 93 92 93 94 93 90 88 85 82 79 77 75 74 72 71 70 69 67 67 66 63 60 57 56 55 54 52 52 53 53 52 51 51 51 51 49 47 46 45 44 43 42 40 39 39 39 40 40 41 42 43 44 45 46 46 46 46 47 49 50 50 51 54 56 58 60
92 92 94 98 103 106 108 110 110 111 112 114 115 115 113 110 109 107 103 98 95 91 87 87 90 92 90 88 87 84 82 80 77 76 73 71 70 68 67 66 65 62 60 58 56 54 52 50 51 52 52 51 50 50 49 47 45 44 42 41 40 40 38 36 36 37 38 38 39 39 40 42 43 44 45 44 44 44 45 46 47 48 50 52 54 56
95 95 94 96 100 104 107 110 113 114 115 115 116 116 114 111 109 106 104 101 98 94 89 84 84 89 89 89 89 88 86 83 80 77 75 72 70 68 68 67 66 63 61 59 56 55 52 50 49 51 51 50 49 48 47 45 44 43 41 39 39 38 36 34 34 35 36 37 38 38 37 39 41 42 43 43 42 42 43 44 45 46 47 49 50 52
99 100 100 100 101 103 106 109 112 116 118 119 119 119 117 113 110 106 103 100 97 96 94 86 82 83 85 85 86 86 86 85 81 78 75 72 68 66 66 66 65 63 60 57 55 54 53 50 50 50 50 49 48 47 45 44 43 42 40 38 37 37 35 33 32 32 33 34 36 37 36 36 37 39 41 42 41 41 42 43 43 43 45 46 48 49
100 104 105 107 109 112 114 117 120 120 121 121 121 121 119 116 112 109 105 101 97 95 96 94 87 83 82 81 80 80 80 81 80 76 73 71 67 65 63 62 62 62 59 56 53 52 52 51 49 49 49 48 47 46 44 43 42 41 40 38 37 36 35 33 32 32 32 32 32 34 35 35 35 37 38 39 41 41 40 41 42 42 42 43 45 47
100 104 108 110 114 117 120 123 127 128 127 126 123 121 120 118 114 110 107 103 97 93 92 94 92 87 85 83 81 79 77 75 74 71 69 67 65 64 63 62 62 62 60 57 54 52 52 51 49 48 47 47 46 44 43 42 41 40 40 39 37 36 34 32 31 31 31 31 31 31 32 33 34 34 34 36 38 39 39 39 40 40 40 40 42 44
99 103 107 110 113 117 120 123 128 131 132 131 127 123 122 120 115 111 108 104 99 93 89 90 92 90 89 87 85 83 79 75 72 69 67 66 65 64 63 62 62 62 61 59 56 53 52 52 51 49 48 47 45 44 43 41 39 38 39 39 39 37 35 33 31 30 29 30 30 30 29 30 32 32 32 33 35 36 36 37 38 38 39 39 40 41
99 102 106 109 112 116 120 123 126 129 130 132 130 127 125 123 118 113 110 106 103 100 97 95 96 94 92 89 87 84 82 78 75 72 69 67 65 63 63 62 61 60 60 58 56 54 52 51 50 50 48 46 45 44 43 40 38 37 37 37 37 37 35 34 33 31 30 30 31 31 29 28 29 30 30 31 33 34 34 35 35 36 37 38 38 39
101 102 105 108 111 114 118 121 124 127 128 129 131 129 126 124 121 116 113 111 108 107 106 102 100 98 94 90 87 84 82 79 76 73 70 68 65 62 61 60 58 58 57 56 55 53 52 49 48 48 48 46 44 44 42 40 37 36 35 35 35 35 34 33 32 31 31 30 30 31 29 27 26 28 29 30 31 32 33 33 34 34 35 36 37 37
103 103 105 107 110 112 116 119 122 125 127 127 128 128 126 125 123 120 117 115 112 108 106 103 101 98 94 91 88 86 83 80 75 71 68 66 64 62 59 58 57 56 56 55 54 52 51 49 48 47 46 45 44 43 41 39 37 35 34 34 34 33 32 31 31 30 30 30 30 30 30 27 25 26 28 29 31 32 31 32 32 32 33 34 35 36
105 105 106 107 110 112 115 118 120 122 124 125 127 128 128 127 127 125 122 120 116 111 107 104 101 98 95 92 89 88 85 81 76 71 67 65 64 62 60 58 56 55 54 54 53 51 49 49 47 46 46 45 44 42 40 38 37 36 35 34 34 33 31 30 30 30 29 28 28 29 29 28 27 26 27 29 30 31 30 30 31 31 31 32 33 35
107 108 108 110 112 114 115 119 122 121 122 125 128 130 131 131 130 129 126 122 118 115 112 108 105 102 99 95 90 89 87 84 80 76 71 68 67 66 64 60 57 55 54 53 52 50 49 48 47 45 45 45 44 42 40 38 38 37 35 35 34 33 31 29 29 29 28 27 26 27 27 28 28 27 28 28 28 28 29 30 30 29 29 30 32 33
109 111 113 113 115 117 118 120 123 125 127 129 131 133 134 134 134 132 129 124 120 117 114 111 108 105 102 98 93 91 91 89 85 81 78 74 71 68 65 61 58 55 54 54 53 52 50 48 47 45 44 44 43 41 39 38 38 37 36 35 34 33 32 30 29 29 29 28 26 25 25 26 27 28 28 28 26 26 27 29 29 28 28 29 30 32
111 113 115 116 117 119 121 122 125 129 132 132 134 136 136 136 136 134 131 127 123 120 117 114 111 108 105 102 97 94 93 91 88 84 81 77 74 70 65 61 58 56 55 53 52 52 51 50 48 46 45 44 42 39 38 37 36 36 35 34 33 33 32 31 30 29 29 28 27 25 24 25 26 26 27 26 25 25 26 27 28 28 28 28 29 30
113 115 117 119 120 121 123 126 128 130 131 133 136 138 139 139 139 138 135 132 128 125 122 117 114 111 108 104 100 95 93 91 88 85 81 77 74 70 66 62 58 56 54 53 51 50 50 50 49 47 46 45 42 39 37 36 35 34 34 33 33 33 32 31 30 28 27 27 26 24 23 23 24 25 25 25 25 25 26 27 28 28 28 28 28 29
115 118 120 122 124 126 127 128 128 128 131 135 139 142 142 143 142 141 140 137 132 128 124 120 116 114 111 107 101 96 92 90 87 84 80 77 73 69 65 62 58 56 54 53 51 50 50 49 48 47 47 45 42 39 38 37 36 34 33 32 32 32 31 30 29 27 26 25 24 23 22 21 22 23 23 24 24 24 25 25 26 26 26 27 28 29
117 120 123 126 128 129 131 132 131 131 133 137 141 145 146 145 144 141 140 138 133 127 124 122 119 115 112 109 104 98 92 88 85 82 79 76 72 68 65 61 59 56 54 53 53 52 51 49 47 47 46 44 41 39 39 38 36 34 32 31 31 30 29 28 27 25 24 23 22 21 20 19 19 20 21 21 22 22 22 23 24 25 25 26 27 28
118 121 124 127 130 132 134 136 136 136 138 140 142 145 147 147 146 142 138 136 134 130 127 125 121 118 114 111 107 103 96 90 87 84 81 78 74 70 66 62 60 58 56 54 54 53 52 50 48 47 45 43 40 38 38 37 35 33 32 31 31 29 28 26 25 23 22 21 20 20 19 18 17 17 18 19 19 20 20 21 22 23 23 24 25 26
118 121 123 127 130 133 134 137 138 139 142 144 144 144 145 146 145 144 141 139 138 135 131 128 124 120 117 113 109 106 102 97 94 91 87 83 79 74 69 64 61 59 57 56 55 54 54 52 50 48 45 43 40 38 37 36 35 33 33 32 30 28 26 24 23 22 21 20 19 18 18 17 16 16 16 17 18 19 19 20 20 21 22 23 23 24
118 121 123 126 130 133 134 135 137 139 141 144 145 145 144 144 144 146 147 145 142 139 135 130 126 122 118 115 112 108 105 103 100 96 92 87 82 77 72 67 63 60 58 58 57 56 55 53 51 49 46 43 40 39 37 36 35 34 33 31 30 27 25 23 21 20 20 19 18 17 17 16 15 15 15 16 17 17 18 19 19 20 20 21 22 23
119 121 124 126 130 134 135 135 135 136 138 141 144 145 146 147 147 148 149 148 145 141 136 132 127 122 119 117 114 111 107 104 101 98 93 89 83 78 73 69 65 63 61 60 59 58 56 54 52 49 46 42 40 39 38 37 35 34 33 31 29 27 24 23 21 20 20 19 18 17 16 16 15 15 15 15 16 17 17 18 18 19 19 20 21 22
120 122 124 127 131 135 138 138 138 139 140 143 145 148 150 153 153 151 149 148 146 142 137 132 128 124 121 118 115 112 108 104 101 98 94 90 85 80 75 70 67 64 63 62 61 60 57 54 52 49 46 43 41 40 38 37 35 34 32 30 28 26 25 23 22 21 21 20 19 18 17 16 16 15 15 15 15 16 17 17 18 18 19 19 20 21
120 123 125 128 132 137 141 142 143 144 146 148 150 152 153 154 154 153 151 148 145 143 139 134 129 126 123 120 116 113 109 105 101 98 95 91 87 81 76 72 68 65 63 62 61 59 57 54 52 49 46 44 42 40 39 37 36 34 31 29 28 26 25 24 23 23 22 22 21 19 18 18 17 16 15 15 15 15 16 16 17 17 18 18 19 19
119 123 125 127 130 135 140 142 143 144 146 149 151 152 152 153 153 153 151 149 146 144 141 137 132 128 125 121 117 113 110 106 103 100 96 93 89 84 78 73 69 66 64 63 61 60 58 55 53 50 47 45 43 41 40 38 36 34 32 30 29 27 25 24 23 23 23 22 21 20 19 18 17 17 16 15 15 14 14 14 15 15 16 17 17 17
117 121 123 125 127 130 134 139 141 141 142 145 147 149 150 151 151 152 151 150 148 146 143 140 136 131 127 123 118 115 111 107 104 101 98 94 91 86 81 75 71 68 66 65 64 62 59 56 53 50 48 46 44 42 40 38 36 35 33 32 29 27 26 24 23 22 22 21 20 19 18 17 17 16 16 15 15 14 14 13 13 14 14 15 15 16
115 118 121 124 126 127 130 135 140 141 141 142 145 146 147 148 150 151 151 151 150 149 146 142 137 132 127 123 119 116 112 108 105 103 99 96 92 88 83 78 73 70 68 66 64 62 59 57 54 51 49 47 45 43 41 39 37 36 34 32 30 28 27 25 24 23 22 21 21 20 19 18 17 17 16 15 15 14 14 13 13 13 13 13 14 15
114 117 120 123 125 127 129 132 136 139 141 142 144 145 145 147 148 150 150 150 150 149 148 144 139 133 127 123 120 117 114 110 106 103 100 97 94 90 86 80 75 71 68 67 65 64 61 58 56 53 50 48 45 43 42 40 38 36 34 32 31 30 28 27 25 24 23 22 21 20 19 19 17 16 15 15 14 14 13 13 12 12 12 12 13 14
114 116 119 121 123 125 127 130 133 137 139 140 142 144 146 147 148 150 150 150 148 147 146 144 140 134 129 124 121 119 116 112 107 104 101 98 95 91 88 83 77 72 69 68 67 65 63 60 57 54 51 48 46 44 43 40 38 36 35 34 32 31 29 27 25 25 24 22 21 20 19 18 17 16 15 14 13 12 12 11 11 11 11 11 12 12
113 115 119 122 124 126 129 133 135 138 139 141 143 145 147 148 149 150 150 150 149 147 145 143 140 136 131 126 122 120 117 114 109 105 102 99 95 92 89 85 80 75 71 69 68 66 64 61 58 55 52 49 47 46 43 40 39 37 36 35 33 31 29 27 25 24 23 22 20 19 19 18 18 17 15 14 13 13 12 11 10 10 10 10 10 11
114 116 119 123 126 128 131 135 137 139 140 141 143 145 147 148 149 150 150 150 150 149 147 145 141 137 133 128 124 121 118 116 112 107 103 100 97 93 90 87 83 78 73 70 68 67 65 62 58 55 52 50 48 46 43 41 39 38 36 34 32 30 29 27 25 25 24 22 20 20 20 19 18 17 16 15 14 13 12 10 9 9 9 8 9 9
Wind_Direction
342 341 341 341 340 338 335 333 332 331 330 328 324 321 318 315 312 309 306 305 303 300 299 297 295 294 292 290 288 287 286 285 284 283 283 282 281 281 280 280 280 279 279 277 276 275 274 274 273 272 272 272 271 271 270 270 269 269 269 268 267 267 266 266 265 264 264 263 262 262 261 260 259 259 258 257 257 257 257 256 256 255 255 254 253 252
345 345 344 344 342 340 338 337 336 334 334 332 329 326 323 321 319 315 312 311 308 306 304 301 299 297 295 292 290 288 287 286 286 285 284 283 283 283 283 283 282 281 280 278 277 277 276 276 275 275 274 274 274 273 272 272 271 270 269 268 267 267 267 266 266 266 266 266 265 264 264 263 262 261 260 258 257 257 256 256 256 255 255 255 255 254
347 347 346 345 345 343 342 340 339 337 337 336 333 330 327 325 324 321 318 316 312 309 307 304 301 298 296 293 291 290 289 289 288 287 286 286 286 286 286 285 283 282 281 280 280 280 279 278 278 278 278 277 277 276 275 273 272 271 270 270 269 269 269 269 269 269 269 268 267 266 266 265 264 263 262 260 259 257 256 256 256 256 255 254 254 254
348 348 348 348 347 346 344 343 341 340 338 337 335 333 331 329 326 323 320 318 314 311 309 306 302 298 296 294 292 291 291 291 290 290 289 290 290 289 288 286 285 284 283 283 282 281 280 280 280 279 279 278 276 275 274 273 273 273 273 273 274 274 274 273 272 272 271 270 269 267 266 265 264 262 262 261 260 258 256 255 255 255 255 254 253 253
349 349 350 349 348 347 346 344 343 342 340 339 337 335 334 331 328 325 323 321 317 314 312 308 303 299 297 294 293 293 293 293 292 292 292 291 290 289 287 285 284 284 283 282 282 281 282 282 281 280 279 278 276 275 275 275 275 276 276 277 277 276 275 274 272 272 271 271 270 269 267 266 265 263 261 260 259 258 256 255 254 254 254 253 253 252
350 351 351 351 350 349 347 346 345 344 343 341 340 338 336 334 331 328 326 325 322 318 315 312 307 303 299 297 297 297 296 295 294 293 293 291 290 288 287 286 285 285 284 284 284 284 284 283 282 281 279 278 278 278 278 278 278 279 279 278 277 276 275 274 273 273 272 271 270 269 268 267 266 265 264 262 260 259 257 255 254 253 253 253 252 252
352 352 352 351 350 350 349 348 346 346 345 344 342 340 339 337 335 332 329 327 325 322 319 316 312 308 305 303 303 302 300 298 298 297 295 293 291 290 289 288 287 286 286 286 287 286 285 284 282 281 280 279 279 280 280 280 281 281 280 278 277 276 276 275 274 273 273 272 271 270 268 267 266 265 264 262 261 260 258 257 255 254 253 252 252 252
353 354 354 352 351 350 350 349 348 347 347 346 345 343 342 340 337 335 332 330 328 325 323 319 315 313 311 309 308 306 303 303 302 300 297 294 292 291 289 288 288 287 288 288 287 286 285 284 283 282 282 282 282 282 283 283 283 282 280 279 278 277 277 275 274 273 272 272 271 270 269 268 267 265 264 262 260 258 257 257 256 255 254 253 252 251
355 355 355 353 352 351 350 350 349 349 348 347 347 346 344 342 340 337 335 333 330 326 324 320 316 315 315 312 310 307 306 306 304 301 298 296 294 292 291 290 290 290 289 288 287 286 285 284 283 284 284 284 284 283 284 284 283 281 280 279 279 277 276 274 273 272 271 269 269 268 268 268 268 267 266 264 262 259 256 254 254 254 253 253 252 251
358 357 356 355 353 352 351 350 350 350 349 349 349 348 346 344 342 339 337 334 330 326 324 321 317 316 316 314 311 309 309 309 306 302 300 298 296 295 294 293 292 291 290 289 288 287 286 284 284 284 284 283 283 284 284 283 282 281 280 280 279 278 276 275 274 273 272 270 268 266 266 265 266 265 265 264 263 262 259 255 253 252 251 251 251 251
359 357 357 356 354 353 352 352 351 351 350 350 349 348 347 346 344 341 338 336 332 329 327 324 322 320 320 318 315 314 314 311 307 304 302 300 298 298 296 295 294 293 293 292 291 290 289 288 288 288 287 287 287 287 286 284 284 283 282 281 280 279 277 277 276 275 273 272 270 268 266 265 264 263 262 262 262 261 260 259 256 253 251 250 250 249
0 359 358 357 354 354 354 354 353 352 351 351 349 349 348 347 346 343 339 338 336 332 330 327 326 324 323 322 319 317 316 313 310 307 305 304 303 301 299 298 298 298 297 296 293 291 290 289 289 288 288 288 288 287 286 285 284 283 282 281 279 277 275 274 272 271 270 269 269 269 268 267 265 263 262 260 259 258 257 258 257 256 253 250 248 247
2 1 359 359 357 355 356 356 355 354 353 352 350 349 348 348 348 345 342 342 340 336 332 329 327 325 324 324 321 319 318 315 312 310 308 307 305 303 302 302 302 301 299 296 293 291 289 288 287 287 287 288 288 287 287 286 286 285 284 283 281 278 276 274 271 269 267 265 265 265 266 266 266 265 264 261 259 256 254 253 254 255 254 251 248 246
1 2 1 0 359 357 356 356 356 355 354 353 352 350 349 348 349 347 345 344 344 340 335 331 329 327 327 326 324 321 319 316 314 312 311 310 308 306 306 305 303 301 299 297 295 294 293 292 291 290 290 290 290 289 289 289 289 288 288 286 285 283 281 279 276 272 269 265 263 263 263 264 264 264 264 263 261 258 254 252 250 250 251 252 251 248
1 2 2 1 360 359 357 357 357 356 355 354 353 352 351 350 349 348 346 344 345 344 338 333 331 329 330 330 326 324 322 319 317 316 315 314 312 311 310 308 306 304 302 300 299 297 296 295 295 294 294 294 292 291 291 291 290 290 289 288 288 287 285 283 280 276 272 268 265 263 262 262 261 261 262 262 261 260 257 254 251 249 248 249 250 250
4 3 4 2 1 0 359 358 358 357 357 355 354 353 352 351 350 349 347 344 345 346 341 335 332 331 333 332 329 327 325 322 320 319 318 317 315 315 314 312 310 308 305 303 301 299 298 298 298 297 297 296 294 293 292 292 292 291 291 291 290 289 287 284 281 278 275 272 268 266 263 261 260 260 260 260 259 259 258 256 254 251 248 247 247 248
8 5 5 5 3 2 2 1 360 359 358 356 355 354 353 352 350 348 347 346 345 346 345 338 333 333 335 335 332 330 327 325 323 321 320 320 319 318 316 313 310 308 306 304 303 301 300 300 299 299 299 297 296 295 294 294 293 293 292 291 290 288 286 284 281 279 276 274 271 268 264 262 260 259 258 258 257 257 257 256 255 253 251 248 247 246
10 7 6 6 5 4 3 2 1 360 359 357 356 355 354 353 351 349 347 347 345 346 349 343 335 336 339 338 335 333 330 328 325 323 323 323 321 319 316 313 311 309 308 306 305 303 302 301 301 301 300 299 298 297 297 296 294 293 292 291 290 288 286 283 281 278 276 274 271 268 265 262 261 259 258 257 257 256 255 255 255 254 252 251 249 247
9 8 7 6 6 4 3 3 2 1 360 359 357 355 354 353 353 351 348 348 347 346 349 348 339 337 340 339 337 335 332 330 328 326 326 325 322 319 316 314 313 312 311 309 308 306 304 303 303 303 302 300 300 299 298 296 295 294 294 292 291 289 287 284 281 278 276 273 271 269 266 264 261 260 259 258 257 256 254 254 253 253 252 251 250 249
8 9 8 8 7 5 4 3 3 2 0 359 358 356 355 354 354 354 351 349 348 345 346 348 343 339 341 341 339 337 335 333 331 330 330 329 326 322 320 318 318 317 315 313 311 309 307 306 304 304 302 301 301 301 300 298 297 296 295 294 292 290 287 284 282 279 276 273 271 269 267 265 263 260 259 259 258 257 255 254 253 252 252 251 249 249
7 8 9 9 8 7 5 4 3 2 0 359 358 357 356 355 355 355 354 351 349 347 346 347 345 341 342 342 341 340 338 336 334 334 335 333 330 327 325 323 323 322 320 317 314 312 311 308 306 305 304 303 303 302 302 301 300 299 298 297 294 291 287 283 280 277 275 273 271 270 268 267 265 263 260 259 258 258 257 255 253 252 251 250 249 248
7 8 8 8 8 7 6 5 3 2 1 360 359 358 357 356 355 355 355 353 351 349 348 347 344 342 343 343 342 341 341 338 337 338 338 336 333 330 328 326 325 324 322 320 318 316 314 311 309 307 307 307 306 305 304 304 303 301 299 298 295 292 288 284 280 277 275 273 272 271 270 269 267 265 263 260 259 259 258 257 255 253 251 250 250 249
6 7 9 10 10 9 8 7 5 3 3 2 0 359 358 357 357 355 355 354 353 351 351 349 346 343 344 344 343 342 342 341 340 340 340 337 334 332 329 327 326 326 324 323 320 318 316 314 311 310 310 310 309 308 308 307 306 304 301 299 296 293 289 285 282 280 278 277 275 273 271 270 269 266 264 263 262 261 260 259 257 255 253 251 250 250
6 6 7 8 10 11 10 10 9 7 5 4 2 0 359 358 358 357 356 355 354 351 351 352 350 346 345 345 344 343 343 342 342 341 340 338 336 333 331 328 327 326 325 323 321 319 318 316 314 313 313 313 311 310 311 310 308 306 304 301 299 295 292 288 284 282 281 280 278 275 271 269 269 268 267 265 264 263 262 261 259 258 256 253 252 251
7 6 5 5 6 8 8 9 9 8 7 6 4 2 360 359 359 358 357 357 355 353 352 353 353 350 348 346 345 344 343 342 342 342 341 338 336 334 332 329 327 325 324 324 323 321 320 320 318 316 316 315 313 313 313 312 310 308 306 303 300 297 295 292 288 285 283 280 278 276 272 269 268 268 267 267 266 264 262 261 260 258 257 255 253 252
9 8 7 7 7 8 8 9 9 9 8 7 6 3 1 360 360 359 358 358 357 356 353 353 354 353 350 348 346 345 344 342 343 343 341 338 337 335 333 330 327 326 325 326 325 323 322 322 321 319 317 317 316 317 316 315 312 310 308 305 303 300 298 296 293 289 286 282 277 274 272 269 267 266 266 266 266 264 263 261 260 258 256 255 254 254
11 10 10 10 10 10 10 11 10 10 9 8 7 5 2 1 0 359 359 359 359 358 357 354 353 353 352 350 349 347 346 344 344 343 341 339 338 337 335 332 330 328 328 328 328 327 325 324 323 321 319 319 319 319 318 316 315 312 310 308 306 304 301 299 296 292 289 285 279 273 270 268 267 266 264 263 262 262 262 261 261 259 257 256 255 254
11 11 11 11 12 12 12 12 12 11 10 9 7 6 4 2 1 0 360 0 360 359 359 357 355 355 355 353 350 348 347 346 346 346 344 342 342 340 337 335 333 330 330 330 330 330 329 327 325 324 322 322 322 322 320 318 317 315 312 310 308 306 305 303 301 297 293 288 283 278 272 269 268 267 264 262 261 260 259 259 259 259 258 257 255 254
11 11 12 12 12 12 12 13 12 11 11 10 8 7 5 3 2 1 0 1 1 0 0 0 359 358 357 355 352 349 347 347 349 349 347 345 344 342 340 337 335 332 331 331 332 332 331 329 326 325 325 325 325 324 322 320 319 317 313 310 307 306 306 306 304 301 296 291 287 283 279 273 271 269 266 264 262 260 258 257 256 257 257 256 255 254
10 11 11 12 12 13 12 12 12 11 11 10 9 8 7 4 3 3 2 2 3 3 1 1 0 359 358 356 353 350 349 349 351 350 349 347 345 344 341 339 337 334 333 333 334 333 331 329 327 326 327 327 326 325 323 322 321 318 314 308 305 304 305 305 304 302 298 293 289 287 284 280 276 273 269 266 264 262 259 258 258 256 256 256 255 254
9 10 11 11 11 12 12 11 12 12 10 10 9 8 8 6 4 4 4 3 3 4 2 1 1 360 359 358 356 353 351 350 351 352 350 348 347 345 344 342 340 338 336 335 335 334 331 330 330 329 328 328 328 327 325 323 322 319 314 310 307 307 307 307 306 303 300 296 292 289 288 284 279 274 271 269 267 265 263 261 260 259 257 256 255 254
9 9 10 10 11 11 11 11 11 11 9 8 8 8 8 8 6 5 5 5 4 3 3 2 1 1 0 360 358 356 353 351 352 353 352 351 349 348 347 347 344 341 339 337 336 334 333 332 332 332 331 331 330 329 327 325 323 320 316 313 312 311 312 311 308 306 304 300 295 292 289 286 282 276 272 269 268 268 267 265 263 261 260 258 257 256
9 8 9 10 10 10 11 11 10 9 8 8 8 8 8 9 8 6 6 6 5 4 3 2 2 2 1 1 0 358 355 353 353 353 354 354 353 351 350 349 347 344 341 339 338 336 335 334 334 335 334 333 332 331 330 328 325 322 319 317 316 315 315 315 312 310 308 304 299 294 289 286 283 279 275 273 272 272 270 268 265 263 261 260 258 256
9 9 9 9 10 9 10 10 9 8 9 8 8 8 8 9 9 8 6 5 5 5 4 3 3 3 2 2 2 1 358 356 355 354 354 354 354 353 352 350 348 346 344 342 340 339 338 337 337 338 337 336 335 334 332 330 326 324 322 320 319 318 318 318 318 315 312 309 304 297 290 285 282 281 280 279 277 274 270 268 266 264 262 259 258 256
10 10 9 9 10 9 9 9 8 9 10 9 8 9 9 8 9 9 7 5 5 6 5 4 3 3 3 3 3 3 1 358 356 355 355 354 354 353 353 352 350 348 346 345 343 341 340 340 340 340 340 338 338 336 334 330 327 325 323 322 321 321 320 321 321 317 312 309 305 300 292 287 283 281 280 279 277 273 269 267 266 265 263 260 257 255
10 10 9 9 9 9 10 10 9 9 9 9 9 9 9 9 9 9 7 6 6 6 5 4 4 3 3 3 4 4 3 360 357 356 355 354 354 354 354 353 351 350 348 346 345 343 342 342 342 342 342 341 340 339 335 332 330 329 327 325 324 322 322 322 320 316 311 306 304 301 296 290 284 280 278 275 273 270 268 267 267 267 266 265 262 259
10 10 10 10 10 10 10 10 9 8 8 10 11 10 9 9 9 9 8 7 6 6 5 5 4 4 4 3 3 4 5 2 359 358 356 355 355 355 354 353 352 352 350 348 347 347 346 346 345 344 344 343 342 340 337 335 334 333 330 327 325 324 323 321 319 315 310 305 303 302 299 294 287 282 279 276 274 272 271 271 271 271 270 268 266 263
10 10 10 10 10 10 9 9 8 8 8 10 11 11 10 10 9 9 9 8 6 6 6 6 5 4 4 3 2 3 4 4 2 0 359 357 357 356 356 355 353 353 353 351 350 349 349 349 348 347 346 345 344 342 339 337 336 334 332 330 328 327 324 321 317 314 310 308 305 303 299 295 290 286 283 281 279 277 276 274 272 271 270 268 267 265
10 10 10 10 10 11 11 9 8 9 9 10 11 12 11 10 9 8 9 8 7 7 6 6 6 5 4 4 3 2 3 4 4 3 2 -0 359 358 358 357 356 355 355 354 352 351 351 351 351 350 349 347 346 343 340 339 338 337 336 335 333 331 327 322 318 315 313 311 308 304 300 297 293 290 287 285 282 278 276 273 271 270 270 269 268 266
10 10 10 10 10 11 11 10 9 9 10 11 11 11 11 10 9 7 7 8 9 8 7 6 6 5 4 5 4 3 3 3 4 5 4 2 0 360 359 359 358 357 356 356 355 353 353 353 353 352 351 350 348 345 343 342 341 341 340 339 337 334 329 325 321 320 319 316 312 308 304 302 299 296 292 288 285 281 278 275 272 270 269 268 266 265
10 10 10 10 10 11 11 11 10 9 11 11 11 10 10 10 9 8 8 8 9 9 7 6 6 6 5 5 5 5 4 4 4 4 4 2 1 0 360 360 359 358 357 357 357 356 356 355 355 354 353 351 349 348 347 346 346 345 344 342 339 336 333 330 327 326 325 322 318 315 311 308 305 301 298 294 289 285 282 277 274 270 268 265 264 263
10 10 9 9 10 11 10 10 10 9 10 11 11 10 10 10 10 10 9 8 8 9 8 7 6 6 6 5 6 6 5 5 4 4 4 3 2 1 1 0 360 359 359 359 359 358 358 357 356 356 354 353 352 351 351 351 350 349 347 345 342 340 338 336 334 332 331 328 326 323 319 316 312 308 305 300 294 289 285 281 277 273 268 265 263 262
10 10 9 9 10 10 10 10 10 10 10 11 11 11 11 11 11 10 9 8 8 8 8 7 7 6 6 6 6 6 6 5 5 5 4 3 3 2 2 1 1 0 1 1 0 360 359 358 357 357 356 356 355 355 355 353 353 352 350 348 346 344 343 341 339 338 337 335 333 330 327 323 320 316 312 306 300 295 290 286 283 278 274 270 267 265
10 10 10 10 10 10 10 10 11 11 12 12 13 13 13 12 12 11 10 9 8 8 8 8 7 7 7 7 7 7 6 6 5 5 5 4 4 3 3 2 2 2 2 2 2 1 0 359 359 359 359 359 359 358 357 356 356 355 354 352 351 350 348 346 345 343 341 339 337 335 332 329 325 322 317 311 305 300 295 291 288 285 281 278 275 273
10 10 10 10 11 11 11 10 11 12 13 14 14 13 13 13 12 11 10 9 8 8 8 8 8 7 7 7 7 7 7 6 6 6 6 5 4 4 4 3 3 2 3 3 3 3 2 1 1 1 1 1 1 1 360 359 359 358 357 356 356 354 352 352 351 348 344 341 339 338 336 333 329 326 322 317 312 307 302 297 293 290 287 285 285 283
10 10 9 10 11 11 11 10 10 11 13 14 14 14 13 13 12 11 10 9 8 8 8 8 8 8 7 7 7 7 8 7 7 6 6 6 5 5 5 4 4 3 4 4 4 4 4 3 2 2 3 3 3 3 2 2 1 1 360 359 359 358 358 357 355 350 346 343 341 340 339 337 334 331 327 324 320 315 310 305 300 296 294 292 290 286
9 9 9 9 10 11 11 10 10 11 12 13 14 14 13 13 12 12 11 10 9 9 8 8 8 8 7 7 7 7 8 8 8 7 6 6 6 5 5 5 5 4 4 5 5 5 5 5 5 5 5 5 5 5 4 4 4 3 2 2 2 2 2 0 357 353 350 347 346 345 344 342 340 337 333 329 325 321 317 312 307 301 298 293 287 282
8 8 8 8 9 10 10 10 10 11 12 13 13 13 13 12 12 12 11 10 10 9 9 8 8 7 7 7 7 7 8 8 9 8 7 6 6 5 5 6 6 5 5 5 6 6 6 6 6 6 6 6 6 6 6 6 6 5 5 4 5 5 5 3 -0 357 354 351 350 349 348 346 343 341 337 333 329 325 322 317 312 306 299 292 285 280
8 7 7 7 8 9 9 9 10 10 11 13 13 13 13 13 12 12 12 11 10 10 9 9 8 7 7 8 8 8 8 8 9 9 8 7 7 6 6 6 6 6 6 6 7 7 8 8 8 7 7 7 8 8 8 8 8 7 7 7 7 7 7 5 2 359 357 354 353 352 351 350 347 344 342 339 337 333 329 324 319 313 306 299 293 289
6 6 6 6 7 8 8 9 9 10 11 12 13 13 13 13 13 13 12 11 10 10 10 9 8 7 7 8 8 8 8 8 9 9 9 8 7 7 6 6 7 7 7 7 7 8 9 9 8 8 8 8 9 9 9 9 9 9 9 9 8 7 7 6 4 2 360 359 358 358 357 356 355 352 351 349 345 340 336 331 327 321 314 308 303 298
6 6 6 6 7 7 8 9 9 9 10 11 13 13 13 13 13 13 13 12 11 10 10 9 9 8 8 8 9 9 9 8 8 9 10 9 8 7 7 7 8 8 7 7 8 8 9 10 9 9 9 10 10 10 9 10 11 11 10 9 8 8 8 8 8 6 5 4 5 4 1 0 359 357 356 353 349 345 342 337 331 324 318 312 308 303